O3b FM10

operational
NORAD ID: 40348 Int'l Des: 2014-083 Owner: O3B Country: UK
MEOCIRCULAR

Über O3b FM10

Beschreibung wird geladen...

Live-Position

3D-Globus wird geladen...

Nächste Überflüge

Höhenverlauf

Altitude vs Time

uPlot chart will show altitude changes over time

Zweizeiliger Elementsatz

1 40348U 14083A 26062.41719141 -.00000028 00000-0 00000-0 0 9990
2 40348 0.0434 347.1670 0002687 353.5688 19.2470 5.00115204204604
Epoch: 3. März 2026 • Age: 30 hours

Aktueller Status

Höhe 8065.8 km
Geschwindigkeit 5.25 km/s
Subsatellitenpunkt 0.04°N, 166°W
Startdatum 18. Dez. 2014
Alter 11.2 years
Typ other

Technische Details

Klassifizierung Payload
Masse 700.00 kg
Trockenmasse 500.00 kg
Gesamtmasse 700.00 kg
Länge 4.00 m
Durchmesser 2.00 m
Spannweite 12.00 m
Form Box trap+2 pan
Hersteller THALR
Bus-Typ Prisma
Phasenstatus Renamed
Besitzer/Staat O3B/UK

Große Konstellationen

Loading constellations...